Location: LDNL
(36.4545°S, 141.6685°E)
Time: 12:00:00
(UTC+10:00)

Tiros 1 - All Passes

Search period start: 08 August 2022 00:00
Search period end: 18 August 2022 00:00
Orbit: 629 x 663 km, 48.4° (Epoch: 07 August)

Date Brightness Start Highest point End Pass type
(mag) Time Alt. Az. Time Alt. Az. Time Alt. Az.
08 Aug - 08:07:30 10° NNW 08:12:06 48° NE 08:16:41 10° ESE daylight
08 Aug - 09:49:55 10° W 09:54:22 38° SSW 09:58:49 10° SE daylight
08 Aug - 11:34:06 10° SW 11:37:34 19° S 11:40:59 10° SE daylight
08 Aug - 13:17:08 10° SW 13:20:59 24° SSE 13:24:48 10° ESE daylight
08 Aug - 14:59:03 10° SW 15:03:46 73° SE 15:08:24 10° ENE daylight
08 Aug - 16:42:13 10° W 16:45:31 19° NW 16:48:47 10° N daylight
09 Aug - 06:52:40 10° N 06:55:58 19° NE 06:59:16 10° E visible
09 Aug - 08:32:55 10° WNW 08:37:43 78° SW 08:42:31 10° SE daylight
09 Aug - 10:16:31 10° WSW 10:20:28 25° SSW 10:24:24 10° SE daylight
09 Aug - 12:00:28 10° SW 12:03:53 19° S 12:07:17 10° SE daylight
09 Aug - 13:42:44 10° SW 13:47:06 36° SSE 13:51:25 10° E daylight
09 Aug - 15:24:51 10° WSW 15:29:24 51° NW 15:33:53 10° NNE daylight
10 Aug - 07:16:48 10° NNW 07:21:20 43° NE 07:25:53 10° ESE daylight
10 Aug - 08:59:02 10° W 09:03:34 41° SSW 09:08:05 10° SE daylight
10 Aug - 10:43:13 10° SW 10:46:43 20° S 10:50:12 10° SE daylight
10 Aug - 12:26:22 10° SW 12:30:10 23° SSE 12:33:56 10° ESE daylight
10 Aug - 14:08:17 10° SW 14:13:00 67° SSE 14:17:37 10° ENE daylight
10 Aug - 15:51:16 10° W 15:54:48 21° NW 15:58:18 10° N daylight
11 Aug - 06:02:12 10° N 06:05:15 17° NE 06:08:16 10° E visible
11 Aug - 07:42:07 10° NW 07:46:57 85° SSW 07:51:45 10° SE daylight
11 Aug - 09:25:36 10° WSW 09:29:38 26° SSW 09:33:39 10° SE daylight
11 Aug - 11:09:37 10° SW 11:13:02 19° S 11:16:26 10° SE daylight
11 Aug - 12:51:58 10° SW 12:56:18 34° SSE 13:00:34 10° E daylight
11 Aug - 14:34:03 10° WSW 14:38:39 56° NW 14:43:12 10° NE daylight
12 Aug - 06:26:08 10° NNW 06:30:36 39° NE 06:35:04 10° ESE visible
12 Aug - 08:08:10 10° W 08:12:46 43° SSW 08:17:21 10° SE daylight
12 Aug - 09:52:18 10° SW 09:55:52 20° S 09:59:25 10° SE daylight
12 Aug - 11:35:34 10° SW 11:39:20 22° SSE 11:43:03 10° ESE daylight
12 Aug - 13:17:31 10° SW 13:22:13 62° SSE 13:26:50 10° ENE daylight
12 Aug - 15:00:21 10° W 15:04:05 24° NW 15:07:47 10° N daylight
13 Aug - 05:11:49 10° NNE 05:14:31 15° NE 05:17:14 10° E visible
13 Aug - 06:51:21 10° NW 06:56:10 88° NNE 07:00:59 10° SE visible
13 Aug - 08:34:42 10° WSW 08:38:48 27° SSW 08:42:55 10° SE daylight
13 Aug - 10:18:46 10° SW 10:22:11 19° S 10:25:36 10° SE daylight
13 Aug - 12:01:12 10° SW 12:05:29 32° SSE 12:09:42 10° E daylight
13 Aug - 13:43:14 10° WSW 13:47:55 62° NW 13:52:29 10° NE daylight
14 Aug - 05:35:28 10° NNW 05:39:51 35° NE 05:44:14 10° ESE visible
14 Aug - 07:17:18 10° WNW 07:21:58 47° SSW 07:26:36 10° SE daylight
14 Aug - 09:01:24 10° WSW 09:05:02 21° S 09:08:38 10° SE daylight
14 Aug - 10:44:46 10° SW 10:48:30 22° SSE 10:52:11 10° ESE daylight
14 Aug - 12:26:45 10° SW 12:31:26 57° SSE 12:36:02 10° ENE daylight
14 Aug - 14:09:27 10° WSW 14:13:22 26° NW 14:17:14 10° N daylight
15 Aug - 04:21:29 10° NNE 04:23:47 13° NE 04:26:06 10° E visible
15 Aug - 06:00:34 10° NW 06:05:23 81° NE 06:10:13 10° SE visible
15 Aug - 07:43:47 10° W 07:47:59 29° SSW 07:52:09 10° SE daylight
15 Aug - 09:27:54 10° SW 09:31:20 19° S 09:34:46 10° SE daylight
15 Aug - 11:10:26 10° SW 11:14:40 31° SSE 11:18:51 10° E daylight
15 Aug - 12:52:26 10° WSW 12:57:09 69° NW 13:01:47 10° NE daylight
15 Aug - 14:37:57 10° WNW 14:38:37 10° NW 14:39:16 10° NW daylight
16 Aug - 04:44:49 10° NNW 04:49:06 32° NE 04:53:23 10° ESE visible
16 Aug - 06:26:28 10° WNW 06:31:09 51° SSW 06:35:51 10° SE visible
16 Aug - 08:10:29 10° WSW 08:14:11 21° S 08:17:51 10° SE daylight
16 Aug - 09:53:58 10° SW 09:57:39 21° S 10:01:18 10° ESE daylight
16 Aug - 11:35:59 10° SW 11:40:39 52° SSE 11:45:14 10° ENE daylight
16 Aug - 13:18:33 10° WSW 13:22:38 29° NW 13:26:39 10° NNE daylight
17 Aug - 03:31:17 10° NNE 03:33:04 12° NE 03:34:51 10° ENE visible
17 Aug - 05:09:48 10° NW 05:14:36 74° NE 05:19:26 10° ESE visible
17 Aug - 06:52:53 10° W 06:57:09 30° SSW 07:01:24 10° SE daylight
17 Aug - 08:37:02 10° SW 08:40:30 19° S 08:43:55 10° SE daylight
17 Aug - 10:19:39 10° SW 10:23:51 29° SSE 10:27:58 10° E daylight
17 Aug - 12:01:38 10° WSW 12:06:24 76° NW 12:11:04 10° NE daylight
17 Aug - 13:46:13 10° WNW 13:47:55 12° NW 13:49:35 10° NNW daylight
